Home   Weather   USA   Bristol   Past weeks
Flag for USA

Past Weather in Bristol, Tennessee, USA — Yesterday and Last 2 Weeks

Currently: 53 °F. Mostly cloudy. (Weather station: Abingdon-Southwest Abingdon, USA). See more current weather

Past Weather in Bristol — Graph

°F

Bristol Temperature Yesterday

Maximum temperature yesterday: 72 °F (at 11:35 am)
Minimum temperature yesterday: 60 °F (at 11:15 pm)
Average temperature yesterday: 65 °F

High & Low Weather Summary for the Past Weeks

 TemperatureHumidityPressure
High80 °F (Apr 27, 5:15 pm)98% (May 4, 2:55 am)30.23 "Hg (May 4, 2:55 am)
Low24 °F (Apr 22, 7:15 am)7% (Apr 26, 3:15 pm)29.68 "Hg (Apr 24, 6:35 pm)
Average56 °F60%30.01 "Hg
* Reported Apr 20 8:15 pm — May 5 8:15 pm, Bristol. Weather by CustomWeather, © 2021

Note: Actual official high and low records may vary slightly from our data, if they occured in-between our weather recording intervals... More about our weather records

Bristol Weather History for the Previous 24 Hours

Scroll right to see more
 ConditionsComfort  
Time TempWeatherWind HumidityBarometerVisibility
8:15 pm
Wed, May 5
54 °FMostly cloudy.5 mph76%30.06 "Hg10 mi
7:55 pm55 °FMostly cloudy.9 mph76%30.06 "Hg10 mi
7:35 pm55 °FMostly cloudy.7 mph74%30.05 "Hg10 mi
7:15 pm56 °FOvercast.10 mph74%30.04 "Hg10 mi
6:55 pm57 °FCloudy.12 mph71%30.03 "Hg10 mi
6:35 pm57 °FMore clouds than sun.9 mph70%30.03 "Hg10 mi
6:15 pm58 °FMore clouds than sun.10 mph70%30.02 "Hg10 mi
5:55 pm58 °FMore clouds than sun.10 mph70%30.02 "Hg10 mi
5:35 pm59 °FMostly cloudy.14 mph69%30.02 "Hg10 mi
5:15 pm60 °FOvercast.9 mph68%30.01 "Hg10 mi
4:55 pm61 °FMore clouds than sun.12 mph64%30.00 "Hg10 mi
4:35 pm62 °FMore clouds than sun.12 mph64%29.99 "Hg10 mi
4:15 pm62 °FMore clouds than sun.13 mph62%29.99 "Hg10 mi
3:55 pm63 °FCloudy.9 mph64%29.98 "Hg10 mi
3:35 pm64 °FMostly cloudy.15 mph62%29.98 "Hg10 mi
3:15 pm64 °FMore clouds than sun.13 mph64%29.96 "Hg10 mi
2:55 pm63 °FMore clouds than sun.15 mph67%29.96 "Hg10 mi
2:15 pm62 °FCloudy.14 mph74%29.95 "Hg10 mi
1:55 pm61 °FCloudy.9 mph86%29.95 "Hg7 mi
1:35 pm59 °FDrizzle. Cloudy.10 mph86%29.94 "Hg3 mi
1:15 pm60 °FRain. Cloudy.9 mph81%29.95 "Hg5 mi
12:55 pm64 °FCloudy.13 mph81%29.93 "Hg10 mi
12:35 pm65 °FCloudy.15 mph79%29.93 "Hg10 mi
12:15 pm64 °FMostly cloudy.13 mph85%29.93 "Hg10 mi
11:55 am64 °FMostly cloudy.12 mph86%29.93 "Hg10 mi
11:35 am64 °FMostly cloudy.13 mph85%29.93 "Hg10 mi
11:15 am63 °FMostly cloudy.13 mph86%29.93 "Hg10 mi
10:55 am62 °FMostly cloudy.9 mph92%29.93 "Hg10 mi
10:35 am60 °FLight rain. Mostly cloudy.8 mph93%29.92 "Hg2 mi
10:15 am61 °FRain. Low clouds.8 mph92%29.92 "Hg2 mi
9:55 am61 °FFog.10 mph92%29.92 "Hg3 mi
9:35 am60 °FFog.9 mph93%29.92 "Hg5 mi
9:15 am60 °FLow clouds.9 mph92%29.92 "Hg7 mi
8:55 am60 °FLow clouds.10 mph91%29.92 "Hg7 mi
8:35 am60 °FLow clouds.8 mph91%29.91 "Hg10 mi
8:15 am59 °FOvercast.8 mph91%29.90 "Hg10 mi
7:55 am59 °FOvercast.12 mph91%29.90 "Hg10 mi
7:15 am59 °FOvercast.10 mph90%29.89 "Hg10 mi
6:55 am59 °FOvercast.12 mph91%29.89 "Hg10 mi
6:35 am59 °FOvercast.10 mph93%29.88 "Hg10 mi
6:15 am59 °FMostly cloudy.8 mph93%29.87 "Hg10 mi
5:55 am60 °FRain. Low clouds.10 mph92%29.86 "Hg4 mi
5:35 am60 °FDrizzle. Mostly cloudy.10 mph90%29.86 "Hg5 mi
5:15 am60 °FMostly cloudy.8 mph91%29.86 "Hg10 mi
4:55 am60 °FOvercast.8 mph91%29.86 "Hg10 mi
4:35 am60 °FOvercast.8 mph91%29.86 "Hg10 mi
4:15 am60 °FOvercast.6 mph91%29.85 "Hg10 mi
3:55 am61 °FOvercast.6 mph91%29.86 "Hg10 mi
3:35 am61 °FOvercast.8 mph92%29.85 "Hg10 mi
3:15 am61 °FMostly cloudy.5 mph94%29.84 "Hg10 mi
2:55 am60 °FOvercast.5 mph95%29.84 "Hg10 mi
2:35 am60 °FOvercast.6 mph96%29.82 "Hg10 mi
2:15 am60 °FMostly cloudy.5 mph95%29.81 "Hg10 mi
1:55 am61 °FMostly cloudy.5 mph94%29.81 "Hg10 mi
1:35 am61 °FPartly cloudy.6 mph94%29.79 "Hg10 mi
1:15 am61 °FRain. Mostly cloudy.5 mph93%29.82 "Hg10 mi
12:55 am61 °FDrizzle. Mostly cloudy.5 mph94%29.85 "Hg10 mi
12:35 am61 °FLight rain. Mostly cloudy.8 mph96%29.87 "Hg10 mi
12:15 am61 °FFog.7 mph96%29.88 "Hg5 mi
11:55 pm
Tue, May 4
60 °FClear.No wind96%29.87 "Hg7 mi
11:35 pm61 °FClear.No wind96%29.89 "Hg10 mi
11:15 pm60 °FClear.No wind94%29.88 "Hg7 mi
10:55 pm61 °FClear.No wind93%29.88 "Hg10 mi
10:35 pm61 °FPassing clouds.No wind93%29.88 "Hg10 mi
10:15 pm62 °FPassing clouds.No wind90%29.89 "Hg10 mi
Weather by CustomWeather, © 2021

See weather overview